Flag for Germany Weather past 2 weeks in Heidenheim an der Brenz, Baden-Württemberg, Germany

Now
33 °F

Overcast.


Feels Like: 25 °F
Forecast: 30 / 33 °F
Wind: 9 mph from West

Location: Stoetten

Current Time: Dec 25, 2014 at 9:05:37 PM

Latest Report: Dec 25, 2014 at 8:00 PM


Visibility: 25 mi

Pressure: 30.37 "Hg

Humidity: 84%

Dew point: 28 °F

Location of Heidenheim an der BrenzLocation

Historic Weather in Heidenheim an der Brenz — Graph

°F

Heidenheim an der Brenz temperature yesterday

Maximum temperature yesterday: 44 °F (at 2:00 PM)
Minimum temperature yesterday: 28 °F (at 6:00 AM)
Average temperature yesterday: 39 °F

Past Weeks' High & Low Weather Summary

 TemperatureHumidityPressure
High49 °F (Dec 13, 3:00 PM)100% (Dec 10, 8:00 PM)30.56 "Hg (Dec 10, 8:00 PM)
Low28 °F (Dec 24, 6:00 AM)42% (Dec 23, 1:00 PM)29.78 "Hg (Dec 12, 8:00 PM)
Average40 °F84%30.12 "Hg
* Reported Dec 10 8:00 PM — Dec 25 8:00 PM, Heidenheim an der Brenz, Weather by CustomWeather, © 2014

Note: Actual official high and low records may vary slightly from our data, if they occured in-between our weather recording intervals... More about our weather records

Advertising

Heidenheim an der Brenz weather history for previous 24 hours

 ConditionsComfort  
Time TempWeatherWind HumidityBarometerVisibility
8:00 PM
Dec 25
33 °FOvercast.9 mph84%30.37 "Hg25 mi
7:00 PM33 °FSnow flurries. Overcast.10 mph84%30.36 "Hg31 mi
6:00 PM33 °FLight snow. Overcast.7 mph87%30.35 "Hg19 mi
5:00 PM34 °FOvercast.8 mph82%30.33 "Hg31 mi
4:00 PM34 °FOvercast.8 mph82%30.33 "Hg34 mi
3:00 PM34 °FOvercast.10 mph81%30.32 "Hg37 mi
2:00 PM34 °FOvercast.10 mph83%30.32 "Hg37 mi
1:00 PM34 °FOvercast.10 mph85%30.32 "Hg40 mi
12:00 PM34 °FOvercast.9 mph91%30.32 "Hg37 mi
11:00 AM34 °FLow clouds.8 mph93%30.34 "Hg34 mi
10:00 AM33 °FLow clouds.7 mph95%30.32 "Hg37 mi
9:00 AM33 °FOvercast.7 mph90%30.32 "Hg37 mi
8:00 AM33 °FOvercast.6 mph93%30.30 "Hg37 mi
7:00 AM35 °FLight rain. Low clouds.10 mph100%30.27 "Hg7 mi
6:00 AM38 °FRain. Low clouds.9 mph100%30.21 "Hg1 mi
5:00 AM40 °FLow clouds.13 mph93%30.19 "Hg34 mi
4:00 AM40 °FLight rain. Low clouds.10 mph99%30.20 "Hg2 mi
3:00 AM40 °FLight freezing rain. Overcast.13 mph91%30.19 "Hg7 mi
2:00 AM41 °FOvercast.10 mph86%30.19 "Hg31 mi
1:00 AM41 °FDrizzle. Overcast.8 mph85%30.18 "Hg25 mi
12:00 AM42 °FOvercast.9 mph81%30.18 "Hg34 mi
11:00 PM
Dec 24
41 °FOvercast.6 mph78%30.20 "Hg28 mi
10:00 PM42 °FOvercast.8 mph75%30.19 "Hg31 mi
9:00 PM42 °FOvercast.10 mph74%30.20 "Hg31 mi
Weather by CustomWeather, © 2014

See weather overviewHow to use our weather pages